Theta_e
330 329 331 331 331 330 328 329 328 328 329 330 329 329 329 330 329 328 328 329 329 330 331 329 329 328 327 327 328 326 325 325 324 322 321 322 321 320 320 318 317 319 322 315 317 317 316 314 317 323 324 324 325 322 320 320 320 321 323 323 322 320 318
330 330 331 331 330 329 326 324 326 327 327 328 328 328 328 329 330 328 329 329 330 330 331 329 328 329 328 326 326 325 324 324 325 324 323 322 321 320 317 314 318 317 315 315 318 315 316 315 316 318 318 322 323 322 321 321 321 320 322 322 323 320 318
328 329 330 328 328 327 325 323 324 325 325 326 327 328 327 329 330 330 330 330 330 330 330 328 327 328 328 327 327 326 325 324 324 324 324 323 322 320 319 317 315 313 314 313 314 314 315 316 315 316 318 318 316 319 320 320 320 319 323 324 320 317 315
326 327 328 327 327 326 325 323 323 324 325 325 326 327 327 328 329 330 330 330 330 331 330 328 327 327 327 327 326 326 325 325 324 324 323 321 322 320 318 319 319 319 316 313 314 315 314 313 316 317 318 318 316 316 316 317 319 323 324 322 318 315 315
326 327 327 326 326 325 324 323 322 322 323 324 324 325 326 327 328 328 330 329 328 328 328 328 327 327 327 327 326 326 326 325 324 324 323 321 321 320 318 319 320 319 317 316 317 317 316 315 317 317 317 314 314 313 317 316 321 323 323 320 318 315 315
326 326 326 325 325 325 324 323 322 323 321 322 323 325 325 326 328 327 328 327 327 327 326 326 326 327 327 326 326 325 325 324 324 324 322 322 322 321 320 318 319 319 317 317 319 317 316 317 317 315 315 317 312 312 315 319 319 323 320 318 317 314 313
325 325 326 325 324 325 323 323 323 323 323 324 323 325 326 327 327 328 328 328 328 326 326 326 326 327 327 327 325 325 324 325 324 324 324 322 322 322 321 319 318 318 316 319 319 318 317 317 314 315 315 310 310 313 314 316 318 316 314 315 315 313 312
325 326 326 326 325 324 322 323 323 323 323 323 324 325 325 326 326 325 326 326 326 325 325 326 328 327 327 327 326 325 325 324 324 324 322 322 322 321 319 321 320 318 318 320 320 319 319 319 318 316 315 312 309 312 313 313 315 311 308 308 313 312 311
325 325 324 324 325 324 323 323 323 323 323 323 324 324 324 325 324 324 325 325 325 325 325 326 326 327 326 326 324 324 323 326 323 322 322 322 322 321 321 319 320 319 319 320 320 320 320 319 319 318 316 315 313 309 310 312 313 309 308 305 306 310 310
325 324 325 324 323 323 323 323 323 322 322 322 324 324 324 323 324 324 324 323 324 324 324 325 326 325 326 326 325 323 323 323 323 322 321 322 321 321 320 320 321 320 319 320 320 320 320 319 319 319 317 316 315 312 310 309 310 304 305 301 306 306 310
326 326 325 324 323 322 321 322 322 322 322 321 323 324 324 323 323 328 323 323 323 323 324 324 324 324 325 323 324 323 323 323 322 321 322 322 321 321 320 320 319 319 320 321 320 320 320 319 318 317 315 311 311 313 311 308 307 303 303 303 301 304 306
326 326 325 324 323 322 322 322 322 323 323 324 324 323 323 323 323 322 322 322 322 322 322 323 322 323 323 323 322 321 320 323 323 321 321 322 321 321 320 320 317 319 320 320 320 320 319 318 317 316 314 313 311 309 311 309 306 306 304 305 301 302 306
325 326 324 322 322 322 322 322 322 322 323 323 324 323 323 323 323 322 321 322 321 321 321 321 322 322 321 323 321 322 321 322 322 322 320 318 323 321 320 320 318 319 318 319 319 319 319 318 317 316 315 313 309 310 310 309 306 308 303 304 302 301 306
324 324 322 322 323 322 322 323 323 323 323 323 323 322 323 323 322 322 321 321 321 320 320 319 320 321 320 319 319 320 321 323 323 320 320 319 321 321 321 320 319 318 319 319 318 319 319 318 316 316 315 313 310 308 310 306 303 300 301 301 301 301 303
322 321 320 321 322 322 323 323 323 323 323 323 323 323 323 322 322 322 321 320 320 320 319 319 318 319 319 317 317 320 321 321 321 320 320 321 320 322 320 320 319 316 318 317 316 319 319 319 316 315 314 314 312 309 308 309 302 300 301 300 300 300 302
322 322 321 321 321 322 323 323 324 323 323 322 322 323 322 321 322 321 321 320 319 318 318 317 317 318 317 318 318 317 319 320 321 320 320 321 322 320 318 319 318 318 319 317 315 315 316 317 318 316 314 314 314 311 308 307 304 302 302 300 299 299 300
322 322 322 322 321 321 322 323 324 324 324 323 322 321 321 321 321 320 319 318 318 318 317 316 316 316 318 317 317 317 317 318 319 320 321 321 321 320 320 318 316 318 317 317 316 314 315 316 316 316 315 313 314 312 309 306 307 303 301 302 299 300 300
322 322 323 322 322 322 322 323 324 324 324 323 321 320 320 320 319 318 318 318 318 317 317 317 316 315 314 316 317 317 317 317 317 318 319 320 324 321 319 319 318 317 316 316 315 314 313 314 313 314 314 312 313 313 310 308 306 305 303 302 301 299 299
323 322 322 321 321 322 323 323 324 324 324 323 320 320 319 318 319 317 317 317 318 317 317 316 316 315 314 314 315 315 316 316 317 317 316 317 320 319 319 318 317 317 316 316 314 312 311 312 311 310 312 310 309 308 308 306 306 305 304 303 302 299 298
321 322 322 321 321 323 323 323 322 322 323 322 320 319 319 318 317 317 316 317 317 315 314 314 313 311 311 312 313 314 314 314 314 315 315 316 317 316 315 313 314 314 316 314 312 310 310 309 310 308 308 308 307 306 305 304 304 304 303 301 299 300 299
321 321 320 321 322 323 323 323 323 322 322 321 320 319 318 317 315 314 314 314 312 311 310 309 309 309 309 311 313 314 315 315 314 314 314 315 316 317 316 315 318 319 316 313 311 311 312 310 309 308 306 308 306 305 304 302 302 302 301 301 300 298 298
321 321 320 321 321 321 322 322 320 320 320 320 321 319 316 314 312 311 309 309 309 308 309 308 306 307 309 309 312 314 314 315 315 314 313 313 312 313 313 313 313 317 317 318 312 312 312 313 312 310 306 308 307 306 305 303 302 300 300 301 300 300 298
321 320 320 320 320 320 321 320 320 319 319 319 316 314 313 312 311 309 308 307 306 307 306 304 303 301 305 308 311 313 314 314 314 314 312 311 310 311 312 311 315 317 313 310 306 302 301 305 310 312 310 309 309 308 306 305 303 302 302 301 300 299 298
320 319 320 320 320 319 319 319 319 318 318 316 313 312 311 309 308 308 307 306 304 303 301 301 298 294 295 301 311 313 313 313 313 313 312 310 309 310 310 310 310 311 309 308 303 299 298 298 298 299 300 304 308 309 308 307 305 303 304 303 300 300 298
320 319 319 319 320 319 318 317 316 316 315 313 311 310 309 307 306 304 303 303 301 300 299 298 297 298 299 301 307 313 313 313 312 311 310 310 311 312 311 311 311 312 311 307 307 306 304 299 299 299 298 298 297 297 300 306 305 303 302 304 303 302 301
319 318 318 319 318 318 317 315 314 313 311 310 310 308 306 305 304 303 303 302 300 299 298 295 298 300 298 300 302 309 313 313 312 310 311 312 312 311 310 310 309 309 312 316 313 310 310 308 303 302 303 303 300 298 296 296 299 307 304 304 303 301 302
317 317 316 317 316 316 315 313 311 309 309 308 306 305 303 302 301 301 301 300 298 297 297 296 299 298 298 299 301 306 313 314 314 313 312 312 311 310 310 309 309 308 308 309 310 311 310 310 310 310 309 309 308 305 301 299 299 299 304 307 306 306 306
310 313 315 314 313 312 310 308 308 306 305 304 303 301 300 299 299 299 298 298 299 297 297 294 298 297 298 300 302 306 314 314 313 312 313 312 310 309 308 309 308 308 307 306 306 307 310 310 310 309 308 307 306 305 305 305 304 304 304 305 306 305 305
306 308 310 310 308 307 305 304 303 302 302 300 300 299 298 298 297 296 297 298 299 298 296 293 297 298 299 301 304 312 312 311 311 311 311 310 309 308 306 305 305 304 304 303 298 297 304 308 309 308 307 306 304 303 304 303 298 299 302 303 304 302 302
303 305 305 305 304 303 302 301 301 301 299 299 298 297 296 296 296 295 296 296 297 296 295 294 294 297 300 301 305 310 309 309 307 305 305 305 305 305 304 303 301 301 300 299 295 294 296 303 307 305 304 303 303 303 302 302 297 295 295 294 295 294 294
303 302 303 303 303 302 302 301 301 301 298 298 297 296 296 295 295 295 294 294 295 294 294 294 293 295 297 301 306 310 309 307 303 301 299 298 297 297 299 303 302 298 298 297 292 293 295 302 303 303 303 301 300 300 300 301 302 301 298 297 297 297 296
303 302 302 302 302 301 301 301 301 301 299 298 296 296 295 294 294 295 295 296 299 295 294 294 293 293 295 299 307 310 308 305 302 300 298 297 297 296 296 298 297 295 295 293 290 291 292 299 301 301 301 300 299 299 299 299 300 300 300 299 300 301 301
302 303 302 302 302 301 301 300 299 298 297 297 296 296 296 295 295 295 296 296 296 295 294 294 293 292 294 295 299 307 306 304 300 299 300 299 297 297 298 297 296 291 290 290 290 289 289 293 299 299 298 297 297 298 299 299 300 299 299 298 298 299 300
301 302 303 302 302 302 301 300 299 298 297 297 297 296 296 296 295 295 295 296 296 296 296 294 293 292 292 293 295 299 304 303 302 300 299 298 298 297 297 297 296 292 290 290 290 290 290 289 292 298 298 298 297 297 296 299 298 298 299 298 299 299 299
300 300 301 302 301 301 301 301 300 299 298 297 296 296 295 295 295 294 294 295 295 295 296 296 295 292 291 292 292 295 300 300 300 299 297 297 297 296 296 296 295 292 289 290 290 290 290 289 290 296 292 289 288 291 297 297 297 298 297 297 297 297 297
297 299 299 300 301 301 301 300 300 299 298 297 297 296 296 296 295 295 294 294 294 294 294 295 293 293 291 291 291 291 292 294 293 298 297 295 295 294 294 293 295 292 289 290 290 290 289 289 292 291 288 287 287 289 292 293 294 295 295 294 294 294 293
296 296 297 298 299 299 300 300 300 299 299 298 297 296 296 296 295 294 293 293 294 294 294 294 292 291 291 290 290 290 290 290 292 295 295 293 292 292 291 292 292 290 290 291 290 290 290 290 291 289 288 288 288 290 292 291 289 291 291 291 292 292 291
Wind_Speed
7 5 6 4 4 6 6 6 5 5 5 5 6 6 6 6 5 5 5 5 5 6 6 6 7 6 6 5 7 6 5 6 7 8 7 6 8 5 2 2 2 3 6 2 4 5 4 5 3 2 2 3 3 2 2 3 2 3 3 2 3 3 3
5 5 5 5 5 4 4 3 4 4 5 5 5 6 5 6 6 6 6 5 5 5 6 6 5 6 8 8 7 6 6 6 6 6 7 8 7 6 5 3 5 4 2 1 4 2 4 4 1 3 2 2 1 1 1 1 2 2 3 3 3 3 3
4 4 6 6 6 5 5 4 4 4 5 5 5 5 5 5 5 6 6 6 6 6 5 6 6 7 7 8 9 8 6 7 5 6 7 6 6 5 4 6 4 3 3 2 1 3 3 1 4 6 3 4 4 2 1 2 1 2 3 3 4 3 3
5 6 6 6 6 5 6 5 5 5 5 6 5 5 5 5 5 5 6 6 5 5 6 6 6 7 7 8 8 7 7 7 6 6 4 4 6 5 4 6 7 9 8 5 7 5 4 4 5 4 3 2 2 2 2 1 1 2 3 3 4 3 3
6 7 8 8 8 8 7 6 5 4 5 5 5 5 5 5 5 5 5 5 5 5 6 6 5 6 6 6 6 7 7 6 5 6 4 5 6 5 4 4 6 5 4 5 6 6 7 6 7 7 5 2 2 0 1 2 2 3 3 3 3 3 3
4 7 8 7 7 7 7 6 5 6 5 5 5 6 6 7 6 6 6 6 5 5 5 5 5 5 5 5 6 6 6 6 7 6 6 6 7 7 6 4 4 5 5 3 6 6 4 6 6 7 2 2 2 1 1 1 1 2 2 3 3 2 2
5 5 6 7 7 7 7 7 7 7 6 6 6 7 6 6 6 6 6 6 6 5 5 5 5 5 5 6 6 6 6 6 5 6 7 6 6 5 5 5 4 5 3 5 6 6 7 7 6 7 7 2 2 2 1 1 1 2 2 2 2 3 2
7 6 6 6 7 7 7 7 7 6 7 6 6 5 4 6 6 5 6 6 6 5 5 4 5 5 5 5 6 6 5 5 6 6 5 6 6 5 4 6 6 5 5 6 7 6 6 8 9 8 9 8 3 2 1 1 1 1 2 1 2 2 2
9 8 7 5 5 6 7 7 7 6 6 5 5 5 5 6 6 6 6 6 5 5 5 5 5 6 5 6 5 5 5 3 6 5 5 5 6 6 6 4 5 5 5 6 6 6 6 7 7 7 7 8 10 5 2 2 2 1 2 2 0 2 3
10 11 9 8 7 6 5 5 6 5 3 3 6 4 6 4 6 6 6 5 5 5 5 5 6 5 5 6 6 6 5 4 5 5 5 6 5 5 5 6 6 6 5 5 5 6 6 6 6 7 6 7 7 9 6 5 4 3 3 2 3 2 3
10 9 9 9 7 6 5 4 5 6 5 2 3 5 6 6 5 6 6 5 5 5 5 5 4 5 5 5 5 5 5 5 4 3 5 5 5 5 4 4 4 5 4 6 6 6 6 7 7 6 5 3 4 8 7 7 5 4 2 2 2 3 2
8 8 7 7 7 7 7 6 7 7 7 8 6 6 6 7 6 5 5 6 5 5 5 5 5 5 5 5 4 4 3 5 5 5 4 4 4 5 5 5 4 4 5 6 5 5 4 6 6 6 5 4 4 3 5 5 4 5 3 6 4 2 4
6 6 5 5 5 6 6 6 7 7 9 6 5 6 7 7 6 6 5 6 5 5 6 5 5 5 5 5 5 5 4 4 5 5 3 2 4 4 5 5 4 5 4 4 5 5 6 5 5 6 6 5 4 5 5 4 4 5 2 3 4 3 5
5 4 4 6 7 6 5 6 7 7 6 7 5 5 7 6 5 5 5 5 6 6 5 5 5 5 5 4 4 4 4 5 5 4 4 3 3 4 5 5 4 3 4 5 5 5 6 6 5 6 5 5 5 4 6 4 3 1 1 1 2 2 3
3 0 2 3 6 6 7 8 6 6 7 6 6 6 7 5 4 5 5 4 5 5 4 5 4 5 5 4 4 4 5 5 4 4 4 4 4 4 4 5 4 3 4 5 4 5 5 6 5 5 5 6 6 6 4 6 3 4 4 1 1 2 3
2 4 7 7 6 7 8 8 7 8 7 6 6 8 8 7 7 6 5 5 5 4 5 4 4 5 5 6 6 4 4 5 5 5 5 5 5 3 4 4 4 4 4 5 4 5 4 4 5 5 5 5 7 6 5 4 4 3 6 4 3 4 4
5 9 8 6 7 6 5 6 8 8 8 7 7 5 7 8 7 6 6 5 5 5 4 4 5 4 6 6 6 6 5 4 5 5 6 5 5 4 4 4 3 5 5 6 4 4 4 6 6 6 5 6 6 7 6 5 5 5 4 6 5 6 5
7 7 5 3 5 7 6 7 8 9 8 8 7 6 6 7 7 7 7 6 5 5 5 5 5 4 4 5 6 6 5 5 5 4 4 5 5 5 4 4 3 4 5 6 4 4 3 4 5 6 7 7 7 7 5 6 6 4 6 7 4 2 3
6 5 3 3 4 1 2 1 4 8 9 9 7 7 8 6 7 7 6 6 5 5 5 5 6 6 5 4 4 5 5 5 5 4 4 4 4 3 3 1 2 5 6 7 5 5 5 6 6 5 7 7 6 5 6 5 5 5 6 6 6 3 2
6 9 8 5 4 6 8 9 5 4 6 9 8 8 7 8 6 7 5 6 5 5 5 5 5 4 4 4 5 5 5 4 4 4 3 3 4 6 7 8 7 4 3 4 6 6 6 6 7 7 6 6 5 6 6 6 6 6 5 4 2 2 4
7 5 4 5 6 8 9 8 8 2 4 8 9 9 8 6 5 4 5 5 4 4 5 5 4 4 4 5 5 5 6 5 4 4 4 4 5 5 6 6 8 6 0 2 3 6 6 6 4 4 2 5 6 6 6 5 4 5 4 4 4 5 3
4 5 4 5 7 9 7 5 6 5 5 5 8 7 6 7 6 6 4 5 5 4 5 5 4 4 5 4 5 6 6 5 5 6 5 4 2 4 5 3 2 3 1 1 5 6 4 6 8 6 2 4 5 6 5 4 5 6 3 4 2 2 3
6 4 5 6 8 8 8 6 7 5 7 5 4 7 7 6 7 7 6 5 4 4 3 3 2 4 3 4 5 5 5 5 6 6 7 6 4 5 4 4 5 8 8 7 7 8 8 10 9 7 5 5 6 6 5 5 4 5 5 4 2 3 3
5 7 8 7 7 6 7 7 8 9 7 5 6 8 7 6 6 5 7 6 6 3 2 1 0 2 4 4 4 5 6 5 5 7 7 7 7 7 5 5 5 7 7 8 10 13 14 15 15 15 14 12 7 6 7 7 4 4 3 3 3 3 2
6 7 7 7 8 7 7 5 7 7 7 7 5 6 6 6 6 5 5 5 5 3 1 2 1 1 3 6 6 6 6 7 6 6 7 7 7 7 7 5 4 4 5 5 7 10 13 15 16 16 16 15 15 14 10 6 4 4 3 4 4 2 3
6 6 6 7 7 9 8 7 7 7 6 4 3 9 6 7 7 5 6 7 4 2 2 4 2 2 6 9 11 9 6 6 8 7 7 7 7 7 6 6 6 5 5 9 6 7 9 11 13 15 15 16 15 14 14 15 12 7 5 5 5 3 2
3 7 4 7 8 8 8 6 6 6 5 3 4 9 6 7 6 6 5 7 5 3 3 6 3 7 9 12 13 10 6 8 7 7 6 6 5 6 6 7 8 6 4 5 4 4 6 8 7 8 8 8 8 10 13 13 13 11 7 5 4 3 0
9 2 5 5 7 8 8 7 8 5 6 3 5 9 8 8 6 6 5 5 7 5 4 7 6 8 10 14 15 11 8 8 8 8 7 7 6 6 5 5 5 7 5 5 3 3 5 7 8 8 8 8 7 6 6 5 5 4 5 5 4 3 4
10 10 5 6 7 8 8 7 8 6 6 7 4 8 8 7 7 7 5 5 7 8 6 10 10 7 11 16 16 10 9 10 9 9 9 9 8 6 5 5 5 6 5 5 6 8 5 4 9 9 9 7 6 5 5 3 4 4 4 4 4 3 1
11 11 9 7 8 9 9 10 8 6 9 6 8 5 9 7 6 7 8 6 8 8 7 10 9 10 10 15 14 9 10 9 9 9 8 7 7 7 7 6 4 6 6 7 7 10 8 4 6 7 7 6 5 6 5 2 4 6 7 8 6 4 2
12 11 10 9 7 9 10 9 9 6 9 7 10 6 7 9 9 8 9 9 6 8 7 10 11 11 11 10 11 11 9 10 9 8 8 7 7 8 10 16 10 6 7 7 9 13 10 8 8 6 6 5 5 6 5 3 1 3 6 7 9 7 7
9 12 10 10 7 8 10 10 8 9 9 9 9 6 6 9 9 9 9 9 12 11 8 10 13 12 13 11 8 8 9 10 10 7 7 7 6 6 7 9 12 10 8 8 12 12 12 8 7 6 5 6 6 5 3 4 5 5 6 6 7 6 7
10 8 12 9 8 8 9 10 10 12 11 9 9 8 8 9 11 9 8 9 9 9 10 9 11 14 13 13 10 7 6 10 10 8 6 6 8 7 5 6 7 10 10 10 9 9 9 9 6 4 4 5 4 2 1 2 3 3 4 5 4 4 4
11 10 7 9 7 8 9 10 9 11 12 11 10 9 10 9 11 10 9 9 10 10 8 9 12 15 15 14 13 9 8 8 7 8 7 6 6 5 4 4 3 7 9 8 8 8 8 8 6 5 4 4 2 1 1 2 3 4 5 5 5 6 5
10 9 9 7 9 9 9 9 8 9 9 11 13 10 8 9 10 9 9 9 10 10 11 14 10 15 17 16 15 14 9 7 6 9 9 6 5 5 4 2 3 5 7 6 6 6 7 8 8 6 6 6 4 6 3 2 2 4 5 5 6 6 6
10 9 9 8 7 9 8 10 9 8 8 10 12 10 8 8 9 10 9 8 8 9 9 10 15 13 16 16 16 15 13 8 8 6 7 6 4 4 2 1 2 5 5 4 4 6 6 6 6 6 7 7 5 5 4 3 4 5 5 5 6 6 5
9 9 9 8 9 8 8 8 8 7 7 9 9 9 8 7 8 9 8 7 7 7 7 7 11 14 12 15 14 14 13 13 11 7 6 5 3 2 3 3 3 5 7 9 10 9 8 6 5 8 8 8 6 5 4 6 7 5 5 6 7 6 5
Wind_Direction
176 153 151 157 133 142 177 195 176 181 181 178 174 184 184 180 175 183 186 184 186 186 178 179 182 179 167 173 176 174 164 172 165 161 165 170 175 201 189 150 84 123 140 68 134 155 132 147 148 86 82 118 129 157 166 157 157 155 128 97 98 79 74
138 138 137 141 148 158 178 190 188 187 188 186 184 185 187 182 179 183 187 188 189 194 188 180 175 168 169 168 171 163 178 178 181 169 159 176 180 183 126 88 106 118 100 59 116 89 136 150 111 150 157 115 85 126 123 141 187 131 112 124 113 102 90
120 130 143 151 162 169 183 195 196 191 193 192 193 192 187 187 183 180 184 189 196 188 185 178 164 161 168 173 176 179 178 178 188 170 177 174 180 165 153 150 125 117 80 77 112 120 80 70 156 169 168 159 169 199 158 188 183 85 116 115 94 90 84
158 154 154 156 159 168 188 197 198 203 195 198 192 196 190 186 187 183 184 192 192 183 180 175 173 168 168 169 171 168 176 181 186 182 175 159 167 160 154 155 153 166 170 172 180 171 151 143 124 147 133 169 166 153 252 247 88 104 114 104 103 85 82
175 177 178 177 176 182 188 194 198 194 206 197 194 194 195 189 181 188 190 185 185 182 183 183 177 170 162 152 155 167 180 185 178 177 173 160 169 166 169 169 171 173 154 153 176 165 160 158 154 152 156 122 83 357 28 55 75 108 109 100 99 101 90
212 192 185 182 182 183 184 186 181 200 196 193 203 199 206 186 179 180 181 183 187 191 177 170 179 166 156 153 156 163 168 172 178 176 171 179 172 174 184 186 162 168 170 138 148 153 124 124 135 137 114 101 132 74 23 91 70 71 80 85 98 89 97
213 220 204 186 186 186 180 184 186 189 187 199 195 206 197 182 179 182 179 183 186 179 173 169 168 167 162 162 163 163 172 179 170 177 178 172 174 177 151 156 176 177 160 155 153 145 146 133 145 154 142 77 94 97 56 54 77 101 38 57 87 105 86
169 224 222 204 184 184 185 181 188 182 186 195 194 196 172 175 175 174 177 177 177 173 166 159 162 164 167 159 164 168 161 162 174 172 174 165 169 163 161 172 176 170 164 165 158 165 159 161 155 159 149 133 85 84 116 53 126 111 176 30 110 96 109
168 198 216 215 202 196 184 181 183 182 189 183 189 163 179 167 168 172 175 176 169 165 167 163 162 163 161 156 154 151 155 161 158 170 172 172 177 170 172 159 155 183 167 170 172 166 170 165 157 157 165 155 145 154 147 159 175 218 161 131 6 139 141
173 185 195 192 194 198 188 185 171 176 167 179 170 173 162 168 165 166 165 161 164 165 161 164 163 161 158 155 156 155 157 161 157 167 161 174 178 165 159 167 177 171 175 171 171 170 165 158 167 168 172 168 163 143 166 179 204 170 243 171 163 239 156
181 186 188 188 183 177 188 166 137 129 116 79 283 190 164 159 170 162 154 160 160 159 162 158 160 157 152 156 159 163 160 154 155 149 172 170 169 160 155 155 154 163 169 168 179 173 165 166 164 166 152 130 135 160 159 168 200 213 180 234 169 172 187
184 184 187 183 175 173 173 167 161 159 152 182 183 183 162 160 164 164 159 155 157 158 154 157 155 154 158 156 155 148 149 156 157 172 181 170 167 152 152 165 164 159 166 172 165 165 165 162 164 148 152 124 116 119 149 138 149 250 165 193 230 209 157
178 181 177 169 179 177 167 163 165 162 178 180 180 187 159 164 165 161 165 156 157 157 156 159 158 154 155 163 154 146 163 159 163 175 181 173 155 159 156 165 180 167 168 156 161 166 170 168 152 154 159 144 133 138 141 154 147 195 233 198 185 180 160
189 179 171 180 176 176 164 164 171 177 161 187 170 187 159 161 163 159 157 161 160 163 161 160 160 152 157 155 153 155 161 166 169 178 163 173 175 164 167 173 185 178 154 152 161 161 167 168 154 160 157 148 155 162 150 149 129 107 359 354 127 158 154
165 36 288 236 178 174 168 170 172 163 181 186 168 174 155 155 156 156 155 162 162 160 160 157 156 151 155 153 160 166 166 168 171 171 169 176 181 184 169 175 183 145 134 119 135 156 166 165 157 156 167 166 185 190 187 145 156 138 189 254 72 66 132
142 167 201 219 195 181 171 158 161 186 184 176 183 167 159 156 160 158 157 165 163 161 159 158 160 159 165 164 167 172 173 168 170 171 177 184 181 169 171 185 174 138 143 113 120 132 129 142 161 175 185 182 193 197 193 171 138 157 167 215 181 165 179
206 222 208 196 192 186 176 174 178 182 172 171 175 167 157 160 159 158 160 167 170 165 159 160 163 172 170 167 164 168 170 176 175 178 179 178 176 170 184 187 175 151 144 130 140 125 148 150 185 194 195 197 193 198 197 186 185 144 172 168 223 191 191
220 227 239 246 203 181 182 180 180 175 164 167 165 159 165 161 159 159 163 168 172 168 171 166 166 173 182 174 169 168 172 176 179 181 182 175 174 176 175 194 164 150 147 146 154 156 181 174 195 197 200 193 199 194 191 195 190 159 149 191 192 183 155
218 243 273 311 293 297 110 168 191 166 163 165 165 164 165 172 162 163 161 163 168 174 167 166 170 179 186 183 174 176 174 178 180 175 171 170 176 175 165 135 144 152 152 148 179 176 183 190 197 205 205 194 180 171 189 201 184 173 173 187 164 153 174
207 202 209 195 156 147 165 164 194 231 170 168 162 164 171 169 166 160 158 147 154 154 154 162 167 172 176 174 175 177 181 181 167 165 157 141 102 86 87 83 52 348 130 171 171 176 166 174 185 192 190 166 154 153 167 179 172 169 167 148 146 200 174
218 210 184 158 159 168 173 170 168 177 201 176 167 168 171 162 139 129 131 130 128 132 130 135 142 149 162 164 164 176 178 177 158 120 108 120 143 145 124 127 143 175 173 257 208 165 158 150 147 125 128 132 136 137 149 146 139 146 147 159 172 186 183
219 211 182 168 167 168 175 164 126 110 346 269 173 159 134 132 125 114 111 123 126 121 132 141 138 145 159 154 152 157 165 161 143 119 105 96 75 82 105 118 92 130 175 217 253 157 184 161 145 117 90 111 122 127 125 133 143 139 138 153 160 90 128
234 182 193 194 175 164 157 157 134 120 125 305 286 127 134 137 137 138 132 114 106 110 119 132 126 151 161 146 149 140 138 145 134 125 118 104 81 75 75 81 82 86 90 84 65 59 67 66 61 89 126 122 122 111 115 115 116 132 138 144 171 140 154
193 189 189 189 166 150 155 161 150 139 143 148 241 142 139 134 131 134 133 132 122 114 120 96 225 198 159 176 143 138 141 128 117 124 124 120 115 104 88 79 84 91 94 87 80 80 74 73 76 77 76 74 74 111 118 97 100 138 122 125 148 117 134
201 194 182 177 169 148 142 148 131 138 144 143 231 130 124 127 120 119 111 106 106 115 110 16 3 255 193 169 153 129 122 117 118 119 119 117 118 113 107 96 85 89 85 91 100 89 82 83 85 81 76 70 69 64 65 107 136 84 96 103 91 119 124
188 205 176 172 154 151 149 150 137 127 140 125 199 125 129 117 117 113 117 111 96 65 69 4 63 147 160 138 123 115 108 117 118 119 120 125 126 124 120 104 88 63 59 75 86 98 104 94 85 85 83 78 67 69 71 65 62 92 128 91 103 51 53
249 178 163 155 144 143 147 140 107 99 91 121 167 111 106 104 99 100 100 109 101 68 44 355 74 136 147 122 111 103 102 98 94 93 94 97 103 106 113 122 115 95 75 73 73 83 97 98 94 86 76 73 76 64 62 62 66 63 68 109 116 104 207
360 351 136 134 122 119 116 103 109 110 105 128 153 114 117 107 95 91 91 98 99 69 27 13 86 132 133 112 103 98 94 91 87 81 73 71 73 84 89 90 100 113 108 90 50 73 108 107 99 92 87 81 78 76 73 67 66 72 74 68 79 68 20
13 5 14 96 101 99 95 96 98 86 90 88 48 94 84 88 87 83 69 76 89 70 36 29 75 99 119 108 99 94 91 88 87 78 69 63 59 50 47 59 83 78 72 62 36 50 55 123 114 113 110 114 106 89 73 85 96 79 94 99 99 102 96
20 23 17 39 75 80 84 83 69 87 83 64 78 44 92 76 75 77 72 61 75 72 50 24 57 82 89 106 102 100 97 92 82 73 68 66 64 62 59 50 47 75 73 58 32 56 44 83 91 98 107 107 105 95 88 104 135 103 101 111 104 119 142
38 25 34 22 53 79 84 77 79 66 82 82 80 49 68 81 67 61 66 64 56 78 60 31 41 57 69 73 106 111 107 101 90 88 85 70 70 68 55 51 48 43 55 57 41 49 43 73 76 74 70 75 62 54 29 12 118 79 81 92 59 63 54
41 51 26 42 12 71 78 84 82 75 70 69 63 60 52 77 75 62 57 66 61 64 60 39 35 48 58 69 88 103 106 103 98 93 94 83 62 64 70 61 52 44 35 30 46 44 36 52 81 75 88 84 74 57 3 350 25 34 31 37 27 26 25
12 49 69 36 39 40 73 80 82 85 73 67 69 54 52 58 68 61 51 53 56 51 58 48 35 44 52 51 59 88 86 104 107 100 83 90 85 52 37 57 59 54 38 25 38 48 49 49 70 67 74 91 107 119 289 21 27 54 61 61 48 47 40
21 11 39 79 62 56 64 68 74 87 92 80 66 59 60 57 63 58 51 48 57 49 45 56 41 42 47 49 49 70 88 94 110 110 108 90 87 90 58 41 51 43 40 27 23 39 48 52 54 69 69 88 87 152 108 73 34 47 70 66 64 55 41
22 20 20 42 70 66 60 64 62 76 86 93 90 75 65 72 67 59 50 47 47 50 42 45 53 40 42 47 47 51 75 69 88 112 99 98 94 90 78 39 47 32 39 33 32 38 43 46 45 64 66 90 91 87 97 94 78 64 63 68 68 58 41
25 24 24 20 52 73 74 79 70 56 70 83 86 85 71 66 72 66 53 44 38 40 38 40 46 49 42 45 50 52 56 65 64 78 105 111 102 94 93 4 54 53 68 78 76 72 73 59 56 64 78 85 76 86 80 66 72 79 77 73 71 65 45
29 28 26 29 37 51 63 78 81 81 78 77 79 78 70 66 65 63 59 46 39 36 32 39 44 50 51 41 42 49 49 48 55 73 75 90 65 83 70 45 33 46 72 74 72 67 60 53 63 65 79 83 85 87 89 62 48 72 78 65 59 50 32